Theta_e
298 292 289 295 294 289 289 288 287 289 293 291 290 291 294 295 295 296 298 300 301 303 307 306 307 307 307 313 320 320 319 321 324 327 326 325 324 326 326 328 328 327 327 326
289 286 292 297 295 293 289 287 286 289 292 291 289 288 292 294 294 296 297 297 299 301 302 304 304 305 306 308 312 319 320 320 322 325 326 326 326 327 327 328 327 327 326 326
283 285 293 294 293 292 290 287 287 287 290 288 285 282 284 288 291 293 295 298 299 299 300 301 302 303 304 305 307 311 318 320 320 323 324 321 322 320 322 323 324 324 326 326
287 290 290 290 288 290 285 292 292 290 287 279 286 275 284 287 288 289 291 291 292 293 295 298 299 299 300 302 303 304 311 318 320 322 321 321 321 320 320 321 323 322 323 324
282 288 288 287 289 291 286 293 292 290 286 283 282 280 282 285 286 289 289 291 291 291 291 292 294 297 299 300 301 304 306 315 318 321 321 320 320 321 320 320 320 321 321 322
283 289 290 289 290 293 292 288 287 286 284 275 281 279 278 282 286 286 289 289 291 290 293 292 292 294 296 302 304 309 312 314 316 318 318 319 319 318 318 318 319 319 320 320
281 286 288 292 289 290 289 284 275 274 275 274 279 279 280 285 288 288 289 291 291 290 293 295 296 296 299 300 299 300 301 302 311 316 317 317 318 318 318 318 319 318 319 319
276 275 285 289 289 286 286 284 277 270 272 274 280 277 282 287 289 289 289 289 290 291 294 296 297 297 297 296 297 298 298 298 299 301 301 304 306 307 309 310 311 313 315 317
277 278 285 288 290 291 286 283 285 278 269 273 276 279 284 286 287 289 288 289 290 292 295 294 294 294 294 295 296 297 297 298 299 299 300 300 301 302 302 303 304 306 308 310
282 278 283 286 288 288 288 289 280 278 269 269 275 276 280 283 286 287 287 286 290 293 294 292 292 293 294 295 296 296 297 298 298 299 299 299 300 300 301 302 302 302 303 303
285 282 280 285 283 282 284 282 284 283 279 274 271 276 282 284 285 285 286 287 289 292 293 291 291 292 293 294 294 296 296 297 298 298 298 298 299 299 300 300 300 300 301 301
288 285 278 279 284 286 286 284 284 278 275 277 276 279 284 284 286 286 287 287 288 291 292 290 291 292 293 293 294 295 296 296 297 297 297 298 298 298 298 298 298 298 298 299
289 284 275 277 282 283 283 285 287 282 281 278 275 279 286 284 285 285 286 287 288 289 290 290 289 290 292 292 293 294 295 296 296 296 296 296 295 295 295 295 295 296 296 296
293 284 280 276 277 282 281 283 286 285 278 281 280 283 281 284 285 284 285 287 287 288 289 289 288 289 291 291 292 293 294 295 295 295 295 294 293 294 294 293 293 293 293 293
289 282 282 284 281 282 283 283 284 283 285 281 283 283 286 287 287 287 288 288 287 288 287 288 288 290 291 291 291 291 293 294 295 294 293 292 292 293 292 291 291 291 291 291
290 282 282 276 283 282 281 283 284 285 285 285 286 285 292 289 287 288 288 288 288 287 288 288 289 289 290 291 291 291 292 293 293 292 291 290 290 289 289 289 288 288 288 289
285 284 282 278 282 281 278 282 283 284 286 286 282 288 292 289 288 289 292 288 288 289 289 289 290 291 291 291 293 291 292 292 292 291 289 288 288 287 287 286 286 285 286 288
280 277 279 277 274 272 281 285 287 285 287 288 289 289 288 291 293 293 292 290 289 290 291 291 292 291 291 291 290 291 291 291 291 288 287 286 286 286 285 285 285 284 285 286
285 281 276 275 275 279 279 282 282 283 284 289 287 289 291 292 289 289 291 292 293 294 293 294 295 292 291 290 290 289 288 289 288 286 285 285 285 284 284 283 283 284 284 285
284 284 279 277 274 269 280 286 286 286 279 288 289 289 289 290 283 289 294 293 293 292 294 292 291 290 290 290 288 287 287 286 286 286 285 285 284 283 283 283 282 283 283 284
277 279 276 277 275 278 283 284 286 277 280 289 288 290 290 288 290 291 290 289 290 291 292 291 289 289 289 288 287 286 285 285 286 284 283 283 282 282 282 281 282 282 282 283
273 272 273 269 273 271 284 283 280 285 288 286 287 290 290 289 290 290 289 289 288 289 289 288 288 287 287 286 285 285 284 284 282 282 281 280 280 280 281 279 280 280 281 280
274 279 276 278 277 285 288 288 291 290 290 291 286 288 288 287 286 287 288 287 288 288 287 286 286 286 284 283 283 283 282 281 279 277 276 275 277 278 279 277 278 278 279 279
279 282 280 281 283 286 288 289 291 291 291 290 288 287 287 286 286 286 285 285 285 284 285 281 281 281 280 276 277 278 278 278 274 272 273 274 274 275 276 277 278 277 277 277
278 279 279 281 283 284 285 287 290 290 289 288 287 287 287 286 286 285 284 283 283 282 280 278 280 280 277 274 273 272 273 272 271 271 272 273 273 272 273 274 275 276 277 278
283 280 280 279 283 283 284 284 287 287 287 288 287 285 285 285 284 283 281 279 275 276 274 274 273 273 271 271 269 267 267 268 268 270 270 270 270 270 270 271 271 276 278 279
Wind_Speed
2 3 6 8 1 3 5 3 2 3 1 3 4 6 13 6 5 8 10 10 10 13 14 8 8 8 8 7 9 12 11 12 9 8 9 8 10 9 9 9 11 11 10 11
4 5 2 3 6 4 4 4 3 3 3 1 6 9 14 11 8 11 13 13 15 12 11 8 7 8 9 10 10 8 12 11 12 9 8 4 5 6 7 7 9 11 12 11
5 2 1 5 4 5 1 4 3 2 4 2 6 7 6 4 4 6 10 15 14 14 13 11 8 10 8 9 10 9 11 11 12 13 6 3 2 1 4 5 7 9 11 12
4 2 4 3 2 4 2 7 6 2 5 4 4 7 6 7 10 6 15 8 10 8 10 14 9 7 8 11 7 8 10 11 11 12 10 12 9 8 4 3 4 6 9 10
4 6 5 4 6 7 5 4 6 4 4 2 3 1 9 3 8 15 1 5 5 6 8 11 9 8 7 7 7 6 6 6 7 11 11 9 8 5 3 3 4 5 6 8
1 2 4 7 4 8 7 5 6 4 3 1 7 6 4 5 8 4 2 3 7 8 10 8 6 6 4 1 2 1 5 3 5 6 5 8 8 5 4 3 3 3 4 4
3 3 2 3 6 3 1 6 1 3 1 7 1 3 6 9 11 7 8 9 8 7 7 6 4 2 5 6 5 4 6 6 5 6 5 4 4 4 4 3 3 3 2 3
7 6 11 8 7 9 8 7 6 8 5 3 3 8 7 8 10 10 8 7 9 8 5 3 1 5 6 6 5 7 7 7 7 7 6 5 4 3 3 3 2 2 2 2
6 5 2 3 4 9 6 6 5 6 2 2 5 7 10 8 11 9 7 3 5 7 3 3 3 4 5 6 6 6 7 6 6 6 5 5 4 3 2 2 1 0 1 1
2 2 1 0 1 1 5 7 3 3 2 5 6 6 7 5 7 6 9 6 6 4 5 3 3 4 4 5 4 6 6 7 6 6 5 4 4 4 3 2 2 2 2 2
5 4 4 3 7 9 4 4 2 5 6 6 3 8 8 9 5 7 6 3 6 5 5 4 4 4 4 3 4 5 6 6 5 5 5 5 4 4 4 3 2 2 2 3
8 1 5 9 3 2 3 6 9 6 5 3 2 14 5 7 6 5 6 6 6 5 7 7 6 5 6 6 6 6 6 6 5 4 4 4 3 3 3 3 2 2 3 3
10 5 2 1 4 2 7 7 7 4 2 9 6 13 1 1 6 6 4 6 4 4 6 6 4 6 7 6 6 7 6 6 5 5 5 4 4 3 2 2 3 3 4 5
13 5 9 12 6 7 8 9 15 12 5 20 11 28 0 5 7 4 6 5 5 6 9 8 6 6 6 6 7 7 7 7 7 6 5 5 4 3 2 2 3 4 5 5
11 7 9 16 1 4 7 9 15 16 23 15 25 20 20 11 11 7 6 6 2 6 7 8 7 8 9 8 7 6 7 7 7 7 6 6 5 3 1 1 2 3 4 5
5 11 6 5 11 10 10 7 11 21 25 17 25 23 20 8 3 7 11 5 7 8 8 7 8 8 9 8 8 7 8 8 6 6 6 5 5 2 2 3 3 3 4 5
5 8 11 20 15 7 12 19 20 16 19 20 23 32 20 10 10 16 18 8 10 11 10 10 13 13 9 10 10 9 10 6 8 7 6 6 5 5 4 4 4 4 4 4
6 6 4 7 3 16 14 6 22 27 26 22 23 19 10 19 20 14 6 9 12 13 12 11 12 11 11 8 7 8 7 10 10 8 7 6 6 5 5 5 5 4 4 5
15 5 5 7 13 17 5 8 10 14 24 20 14 23 26 23 4 10 9 12 13 12 11 14 11 9 8 8 9 7 7 8 9 10 9 8 6 5 5 6 5 4 4 5
14 14 11 7 12 8 13 21 7 7 12 15 21 25 24 17 7 18 14 11 14 11 14 9 9 7 8 10 7 7 8 9 12 11 9 7 6 6 6 5 5 4 4 6
6 8 16 14 11 8 12 8 9 13 13 17 13 20 23 20 14 7 6 6 6 9 10 8 6 9 10 5 7 9 8 13 10 7 7 6 6 6 6 4 3 4 5 6
13 8 9 5 8 14 3 4 5 8 11 6 7 16 17 10 10 9 8 8 8 10 10 8 7 9 8 6 7 8 12 7 8 8 6 6 5 4 3 4 4 5 5 6
12 12 11 12 8 9 9 12 16 8 19 22 7 9 10 9 8 8 9 8 8 10 8 5 8 10 6 6 7 9 5 7 6 5 4 4 4 3 3 4 5 4 5 5
6 6 10 17 9 8 11 12 15 16 22 9 4 5 4 9 6 7 7 8 7 6 8 5 7 9 8 4 4 3 7 8 8 7 5 4 2 2 3 3 4 4 3 5
5 3 6 13 5 5 7 10 12 8 10 12 9 7 9 7 11 7 8 6 6 4 4 4 7 8 5 5 6 5 6 6 6 4 3 2 2 3 3 4 4 5 5 5
6 7 6 7 9 6 8 3 6 9 8 11 9 5 6 8 9 4 7 3 3 4 3 3 1 4 5 6 6 6 4 4 2 3 3 2 2 2 3 4 6 7 11 14
Wind_Direction
22 114 193 189 145 108 107 132 179 234 319 307 234 252 278 281 279 263 264 262 250 246 254 236 226 222 229 230 216 214 206 208 192 189 200 218 223 220 225 218 213 205 206 204
41 220 151 180 151 145 157 141 222 282 344 323 313 283 271 256 233 233 240 249 252 254 254 248 232 221 212 220 218 211 214 199 196 198 203 190 187 218 222 207 208 207 208 209
161 186 93 160 153 155 229 163 179 228 344 15 332 288 308 305 256 268 250 246 255 255 270 261 228 222 222 219 215 207 213 204 201 198 172 133 123 123 178 204 207 210 210 212
216 276 122 121 193 138 203 200 182 171 38 247 22 288 305 290 298 241 262 252 264 263 268 271 262 235 223 235 238 224 214 202 199 186 185 193 203 209 201 184 197 195 206 216
228 154 151 155 200 171 224 153 159 133 158 17 331 261 267 282 286 265 353 248 265 272 273 266 250 250 245 243 234 233 215 192 175 184 191 190 203 208 156 170 190 202 205 216
194 302 159 190 194 183 150 84 60 62 113 286 218 184 256 209 225 305 202 292 299 304 303 293 256 240 241 329 31 102 130 117 157 160 160 184 201 175 179 169 197 206 211 218
339 220 203 168 108 81 216 110 350 353 340 235 76 198 256 268 257 234 265 292 288 292 298 304 309 189 155 128 100 96 105 93 112 139 147 170 191 189 201 200 208 199 209 220
153 293 174 189 180 169 185 168 163 206 202 255 116 235 242 237 279 269 266 253 278 292 266 280 157 150 141 132 127 119 108 100 93 97 103 108 120 139 151 166 180 213 234 262
146 274 197 201 165 147 195 207 167 105 70 37 222 276 289 281 282 294 304 323 299 276 233 176 113 126 136 141 149 138 123 109 108 115 116 101 97 107 127 113 102 50 336 317
194 296 357 304 22 286 167 163 95 7 158 260 249 263 231 278 261 281 311 352 313 264 195 191 180 180 173 152 143 136 135 136 142 130 129 129 121 104 83 73 65 46 8 1
150 158 308 117 213 179 142 201 175 141 172 199 264 260 219 229 250 261 272 330 297 249 225 220 218 210 187 140 162 158 153 152 159 149 140 135 121 109 104 91 56 26 357 1
183 129 197 208 225 233 257 218 188 166 220 241 191 254 195 215 216 218 288 291 286 228 211 209 212 201 192 187 182 186 177 172 176 153 132 124 110 95 90 86 47 14 349 340
166 199 157 278 343 302 219 206 212 128 107 207 176 261 310 244 271 241 248 306 293 282 261 248 231 219 212 206 199 201 196 187 171 163 156 149 137 118 83 22 9 359 349 335
173 176 199 217 192 147 192 199 207 207 209 242 230 258 58 261 254 214 254 270 243 237 221 226 237 238 237 227 215 208 203 192 179 175 170 162 163 153 107 27 1 342 333 320
185 221 217 241 240 186 202 203 206 210 228 223 243 247 249 240 262 266 254 284 309 270 249 232 221 228 220 223 227 222 217 199 183 177 176 180 159 121 88 10 306 297 303 298
195 243 198 257 242 231 238 225 206 218 232 243 252 261 249 247 253 257 255 247 237 250 246 239 250 251 241 231 227 215 219 215 172 185 190 165 134 146 238 259 259 276 279 282
303 245 219 244 232 232 246 219 224 226 233 226 235 242 259 255 220 229 245 190 225 238 223 221 233 238 235 233 229 215 220 168 188 183 182 172 164 195 224 245 256 258 257 250
245 309 304 272 141 244 248 196 212 223 231 229 241 259 240 240 241 253 218 211 225 232 231 226 234 238 236 231 217 220 188 188 187 178 177 177 185 209 227 241 246 245 238 253
209 209 259 251 259 257 317 225 176 195 242 239 229 249 252 260 22 269 223 225 235 241 234 231 234 229 239 229 228 199 196 188 175 182 184 183 183 205 227 247 259 260 261 264
201 205 227 222 244 256 229 240 183 117 251 218 213 240 256 261 220 257 255 216 236 235 250 230 231 229 227 239 196 190 198 185 193 187 185 166 173 200 221 235 249 246 234 258
182 195 223 244 246 239 239 283 131 177 238 254 208 233 242 244 232 260 230 215 221 230 246 249 225 231 232 210 184 208 185 203 194 152 147 158 179 200 219 228 221 256 266 262
208 198 213 210 228 266 292 9 256 278 272 275 192 231 245 247 245 238 263 270 247 244 256 250 246 240 248 201 182 203 206 176 145 149 153 158 185 209 213 227 258 255 262 271
249 222 237 207 223 194 198 193 232 249 267 268 192 224 226 243 235 212 236 246 245 244 249 235 237 251 224 201 196 200 173 128 115 118 148 170 190 208 218 233 252 255 247 259
259 214 230 248 230 211 215 221 218 212 221 260 264 263 265 257 274 267 270 268 262 239 264 218 215 244 243 176 146 148 138 132 138 157 175 185 203 267 256 257 260 249 262 290
230 31 243 255 285 283 261 214 213 221 250 250 254 217 231 248 263 243 261 263 267 269 248 231 231 221 199 151 111 90 105 119 135 144 184 210 220 252 278 268 265 266 247 247
198 208 232 246 256 236 258 234 183 199 220 246 255 196 194 213 257 270 275 302 327 312 288 250 241 114 102 93 97 87 77 90 117 175 196 214 251 276 291 303 302 268 279 294